Location: Newark
(42.7336°N, 84.5467°W)
Time: 04:27:01
(UTC+00:00)

Hubble Space Telescope - Pass Details

Date: 01 October 2020
Orbit: 536 x 540 km, 28.5° (Epoch: 21 October)

Event Time Altitude Azimuth Distance (km) Brightness Sun altitude
Exits shadow 10:00:50 11° 188° (S) 1,738 3.2 -18.2°
Maximum altitude 10:01:06 11° 184° (S) 1,734 3.2 -18.1°
Drops below altitude 10° 10:02:03 10° 171° (S) 1,777 3.4 -18.0°
Sets 10:06:04 0° 132° (SE) 2,665 4.9 -17.3°
